Dickinson, ND

4:54 PM MDT on April 30, 2017 (GMT -0600)
Dickinson Municipal

Weather History for KDIK - May, 2013

Change the Weather History Date:

Saturday, May 18, 2013

  Actual Average Record
Temperature  
Mean Temperature 62 °F 54 °F  
Max Temperature 72 °F 67 °F 92 °F (1901)
Min Temperature 51 °F 41 °F 24 °F (1915)
Degree Days  
Heating Degree Days 3 11  
Month to date heating degree days 234 255  
Since 1 July heating degree days 8336 8317  
Cooling Degree Days 0 0  
Month to date cooling degree days 9 0  
Year to date cooling degree days 9 1  
Growing Degree Days 11 (Base 50)    
Moisture  
Dew Point 55 °F    
Average Humidity 77    
Maximum Humidity 100    
Minimum Humidity 53    
Precipitation  
Precipitation 0.01 in 0.08 in 0.95 in (1904)
Month to date precipitation 1.69 1.27  
Year to date precipitation 2.75 4.06  
Sea Level Pressure  
Sea Level Pressure 29.78 in    
Wind  
Wind Speed 7 mph (North)    
Max Wind Speed 26 mph    
Max Gust Speed 33 mph    
Visibility 7 miles    
Events Fog , Rain    
T = Trace of Precipitation, MM = Missing Value Source: NWS Daily Summary

Daily Weather History Graph

Daily Weather History Graph

Search for Another Location

Airport or City:

Trip Planner

Search our weather history database for the weather conditions in past years. The results will help you decide how hot, cold, wet, or windy it might be!

Date:

Astronomy

May. 18, 2013 Rise Set
Actual Time 5:12 AM MDT 8:23 PM MDT
Civil Twilight 4:36 AM MDT 8:59 PM MDT
Nautical Twilight 3:49 AM MDT 9:47 PM MDT
Astronomical Twilight 2:50 AM MDT 10:46 PM MDT
Moon 1:03 PM MDT (5/18) 1:33 AM MDT (5/18)
Length of Visible Light 16h 23m
Length of Day
15h 10m
First Quarter, 56% of the Moon is Illuminated
May 18
First Quarter
May 24
Full
May 31
Last Quarter
Jun 8
New
Jun 16
First Quarter

Hourly Weather History & Observations

Time (MDT) Temp. Dew Point Humidity Pressure Visibility Wind Dir Wind Speed Gust Speed Precip Events Conditions
12:56 AM 57.0 °F 55.0 °F 93% 29.73 in 10.0 mi ENE 6.9 mph - 0.09 in   Partly Cloudy
1:46 AM 57.2 °F 53.6 °F 88% 29.79 in 10.0 mi Calm Calm - N/A   Overcast
1:56 AM 57.0 °F 55.0 °F 93% 29.77 in 10.0 mi NNE 3.5 mph - N/A   Overcast
2:46 AM 53.6 °F 53.6 °F 100% 29.78 in 1.8 mi Variable 3.5 mph - N/A   Clear
2:56 AM 53.1 °F 52.0 °F 96% 29.75 in 2.0 mi Calm Calm - N/A   Clear
3:04 AM 53.6 °F 53.6 °F 100% 29.77 in 3.0 mi Calm Calm - N/A   Clear
3:07 AM 53.6 °F 53.6 °F 100% 29.77 in 1.8 mi Calm Calm - N/A   Clear
3:21 AM 53.6 °F 51.8 °F 94% 29.76 in 0.5 mi SE 3.5 mph - N/A Fog Fog
3:33 AM 51.8 °F 51.8 °F 100% 29.76 in 1.0 mi South 4.6 mph - N/A   Clear
3:51 AM 51.8 °F 51.8 °F 100% 29.77 in 0.5 mi SW 4.6 mph - N/A Fog Fog
3:56 AM 52.0 °F 51.1 °F 97% 29.75 in 0.8 mi SW 3.5 mph - N/A   Clear
4:02 AM 51.8 °F 50.0 °F 94% 29.78 in 2.0 mi SSW 5.8 mph - N/A   Clear
4:11 AM 51.8 °F 51.8 °F 100% 29.79 in 7.0 mi SW 6.9 mph - N/A   Clear
4:56 AM 52.0 °F 51.1 °F 97% 29.78 in 9.0 mi SSW 8.1 mph - N/A   Scattered Clouds
5:56 AM 54.0 °F 51.1 °F 90% 29.78 in 10.0 mi SW 8.1 mph - N/A   Clear
6:56 AM 55.0 °F 54.0 °F 96% 29.79 in 10.0 mi Calm Calm - N/A   Clear
7:31 AM 57.2 °F 53.6 °F 88% 29.82 in 10.0 mi North 6.9 mph - N/A   Partly Cloudy
7:54 AM 57.2 °F 55.4 °F 94% 29.82 in 10.0 mi NNW 5.8 mph - N/A   Mostly Cloudy
7:56 AM 57.9 °F 55.0 °F 90% 29.80 in 10.0 mi NW 6.9 mph - N/A   Mostly Cloudy
8:56 AM 60.1 °F 55.9 °F 86% 29.81 in 10.0 mi NW 6.9 mph - N/A   Overcast
9:28 AM 60.8 °F 57.2 °F 88% 29.83 in 10.0 mi West 5.8 mph - N/A   Overcast
9:56 AM 62.1 °F 55.9 °F 80% 29.81 in 10.0 mi West 4.6 mph - N/A   Overcast
10:56 AM 63.0 °F 55.9 °F 78% 29.80 in 10.0 mi Variable 3.5 mph - N/A   Overcast
11:56 AM 64.9 °F 55.9 °F 73% 29.80 in 10.0 mi Calm Calm - N/A   Overcast
12:47 PM 66.2 °F 55.4 °F 68% 29.81 in 10.0 mi WSW 3.5 mph - N/A   Mostly Cloudy
12:56 PM 66.9 °F 55.9 °F 68% 29.79 in 10.0 mi Calm Calm - N/A   Mostly Cloudy
1:56 PM 70.0 °F 55.9 °F 61% 29.77 in 10.0 mi NW 5.8 mph - N/A   Clear
2:56 PM 70.0 °F 55.0 °F 59% 29.77 in 10.0 mi NNW 5.8 mph - N/A   Scattered Clouds
4:56 PM 70.0 °F 54.0 °F 57% 29.77 in 10.0 mi Calm Calm - N/A   Mostly Cloudy
5:56 PM 71.1 °F 53.1 °F 53% 29.73 in 10.0 mi East 4.6 mph - N/A   Clear
6:56 PM 69.1 °F 57.9 °F 68% 29.72 in 10.0 mi NE 15.0 mph - N/A   Scattered Clouds
7:38 PM 66.2 °F 57.2 °F 73% 29.76 in 9.0 mi NE 19.6 mph 25.3 mph N/A   Overcast
7:56 PM 62.1 °F 55.0 °F 78% 29.77 in 10.0 mi NNE 20.7 mph 26.5 mph N/A   Overcast
8:05 PM 60.8 °F 55.4 °F 82% 29.78 in 10.0 mi NNE 19.6 mph 33.4 mph 0.00 in Rain Light Rain
8:56 PM 59.0 °F 55.9 °F 90% 29.74 in 7.0 mi NE 18.4 mph 26.5 mph 0.01 in   Clear
9:47 PM 59.0 °F 57.2 °F 94% 29.79 in 5.0 mi ENE 12.7 mph - N/A   Mostly Cloudy
9:56 PM 59.0 °F 57.0 °F 93% 29.77 in 4.0 mi NE 11.5 mph - N/A   Overcast
10:56 PM 59.0 °F 57.0 °F 93% 29.77 in 6.0 mi NNE 11.5 mph - 0.00 in Rain Light Rain
11:09 PM 59.0 °F 57.2 °F 94% 29.77 in 3.0 mi NNE 12.7 mph - N/A   Overcast
11:27 PM 57.2 °F 57.2 °F 100% 29.77 in 2.5 mi NNE 15.0 mph - N/A   Overcast
11:56 PM 57.9 °F 57.0 °F 97% 29.76 in 2.0 mi NNE 12.7 mph - N/A   Overcast